STARLINK-2508 (48456 NORAD) Tracking and Keplerian Element Data

This shows tracking and keplerian element data for the satellite.

Feedback or suggestion? Click here.




ElementValue
Catalog48456
NameSTARLINK-2508
Epoch Orbit367
Epoch Day214.91667824
Epoch Year2021
RAAN162.5886
Inclination53.0505
Eccentricity0.0001464
Argument of Perigee77.1489
Mean Anonmoly169.4483
Mean Motion15.15632829
Decay Rate-0.01068469
L11 48456U 21040AE 21214.91667824 -.01068469 00000-0 -59932-1 0 9992
L22 48456 53.0505 162.5886 0001464 77.1489 169.4483 15.15632829 3677

Live tracking and technical data element details for STARLINK-2508 (NORAD 48456). STARLINK-2508 can be tracked NOW for your location showing map with azimuth and elevation plus other details from your city location.

Track the satellite on the map from your city or location and see movement details for azimuth, elevation, latitude, longitude, range, height, and movement on the map or in text.







IsCatalogInMostPopularTable: catalog: 48456, numindb: 27
Update: records affected: 1



GetName: 48456 STARLINK-2508

Hit Count: updated at: Tue, 03 Aug 2021 23:56:21 GMT